Location: Glencliff
(36.1226°N, 86.7183°W)
Time: 18:49:17
(UTC+00:00)

Cosmos 1733 Rocket - Pass Details

Date: 25 August 2019
Orbit: 604 x 627 km, 82.5° (Epoch: 18 October)

Event Time Altitude Azimuth Distance (km) Brightness Sun altitude
Rises 01:23:02 0° 177° (S) 2,843 6.2 -11.8°
Reaches altitude 10° 01:25:15 10° 173° (S) 1,943 5.3 -12.2°
Maximum altitude 01:29:29 59° 94° (E) 697 3.0 -13.0°
Drops below altitude 10° 01:33:44 10° 15° (NNE) 1,958 5.7 -13.8°
Sets 01:35:59 0° 12° (NNE) 2,867 6.7 -14.2°
